Temperature
13 13 13 12 12 12 11 11 11 11 11 11 11 11 11 12 12 12 13 13 13 13 14 14 14 14 14 14 14 14 13 13 13 13 13 13 13 13 13 13 14 14 14
13 12 12 12 12 11 11 11 11 11 10 10 10 10 11 11 11 11 12 12 12 13 13 13 13 14 14 14 14 14 14 13 13 13 13 13 13 13 13 12 12 13 13
12 12 12 12 11 11 11 11 11 10 10 10 10 10 10 10 10 11 11 11 12 12 12 12 13 13 13 14 14 14 14 13 13 13 13 13 12 12 12 12 12 12 12
12 12 12 12 11 11 11 11 11 10 10 10 10 10 10 10 10 10 10 10 11 11 12 12 12 13 13 13 13 13 13 13 13 12 12 12 12 12 12 12 11 11 11
12 12 12 11 11 11 11 10 10 10 10 10 10 10 9 9 9 10 10 10 10 11 11 12 12 13 13 13 13 13 13 13 12 12 12 12 12 11 11 11 11 11 10
12 11 11 11 11 11 10 10 10 10 10 10 10 9 9 9 9 9 9 10 10 10 11 11 12 12 12 12 13 13 12 12 12 12 12 12 12 11 11 11 11 11 10
11 11 11 11 10 10 10 10 10 10 9 9 9 9 9 9 9 9 9 9 9 10 10 11 11 12 12 12 12 12 12 12 12 12 12 12 12 11 11 11 11 11 11
11 10 10 10 10 10 9 9 9 9 9 9 9 9 9 9 9 9 9 9 9 10 10 10 11 11 11 12 12 11 11 11 11 12 12 12 12 11 11 11 11 10 10
9 9 9 9 9 9 9 9 9 9 9 9 8 8 8 8 9 9 9 9 9 9 9 10 10 11 11 11 11 11 11 11 11 11 11 11 11 11 11 11 10 10 9
7 7 7 7 7 7 8 8 8 8 8 8 8 8 8 8 8 8 8 8 9 9 9 9 10 10 11 11 11 11 11 11 11 11 11 11 11 11 11 11 11 10 10
6 6 6 6 6 6 6 7 7 7 7 7 8 8 8 8 8 8 8 8 8 8 9 9 9 10 10 10 11 11 11 11 11 11 10 10 10 10 10 10 11 11 11
5 5 5 5 5 5 5 6 6 6 6 7 7 7 8 8 8 8 8 8 8 8 8 9 9 9 10 10 10 10 11 10 10 10 10 10 10 10 10 10 10 10 11
5 5 5 5 5 5 5 5 5 6 6 6 7 7 7 8 8 8 8 8 8 8 8 8 8 9 9 10 10 10 10 10 10 10 10 10 10 10 10 10 10 10 10
5 5 5 4 5 5 5 5 5 5 6 6 6 7 7 7 8 8 8 8 8 8 8 8 8 8 9 9 10 10 10 10 10 10 10 10 10 10 10 10 10 10 10
5 5 5 5 4 4 5 5 5 5 6 6 6 6 7 7 8 8 8 8 8 7 7 7 8 8 8 9 9 9 9 10 10 10 10 10 10 10 10 10 10 10 10
5 5 5 5 5 5 5 5 5 5 6 6 6 6 7 7 7 8 8 8 7 7 7 7 7 8 8 9 9 9 9 9 10 10 10 10 10 10 10 10 10 10 10
5 5 5 5 5 5 5 5 5 6 6 6 6 6 7 7 7 7 7 7 7 7 7 7 7 8 9 9 9 9 10 10 10 10 10 10 10 10 10 10 10 10 10
6 6 5 5 5 5 5 5 5 6 6 6 6 6 6 7 7 7 7 7 7 6 7 7 7 8 9 9 10 10 10 10 10 10 10 10 10 10 10 10 10 9 9
6 6 6 6 6 6 6 6 6 6 6 6 6 6 6 6 7 7 7 6 6 7 7 7 8 9 9 10 10 10 10 10 10 10 10 10 10 10 10 10 10 10 10
6 6 6 6 6 6 6 6 6 6 6 6 6 6 6 6 6 6 6 6 6 7 7 8 8 9 10 10 10 10 10 10 10 10 10 10 10 10 10 10 10 10 10
6 7 6 6 6 6 6 6 6 6 6 6 6 6 6 7 7 6 6 7 7 7 8 9 9 9 10 10 10 11 11 10 10 10 10 10 10 10 10 10 10 10 10
7 7 7 7 7 7 7 7 7 7 6 6 6 6 6 6 7 7 7 7 8 8 9 9 10 10 10 10 11 11 11 11 11 11 11 11 11 11 11 11 11 11 10
7 7 7 7 7 7 7 7 7 7 7 7 7 6 7 7 7 7 8 8 8 9 9 10 10 11 11 11 11 11 11 11 11 11 11 11 11 11 11 11 11 11 11
7 7 7 7 7 7 7 7 7 7 7 7 7 7 7 7 7 8 8 9 9 10 10 11 11 11 11 12 11 11 11 11 11 11 11 11 11 11 11 11 11 11 11
7 7 7 7 7 7 7 7 7 7 7 7 7 7 7 8 8 9 9 10 10 11 11 12 12 12 12 12 12 12 11 11 11 11 11 11 11 11 11 11 11 11 11
8 8 7 7 7 7 7 7 7 7 7 7 8 8 8 9 9 10 10 10 11 12 12 12 12 12 12 12 12 12 12 11 11 11 11 11 11 11 11 11 11 11 11
Wind_Speed
8 7 7 7 7 6 6 7 7 6 6 7 7 7 7 8 7 6 7 7 7 7 7 8 8 7 5 5 4 4 5 6 7 3 2 2 3 6 6 7 8 8 10
9 9 9 9 8 8 8 9 8 8 8 7 7 7 8 8 7 7 8 8 7 7 8 8 8 7 6 5 4 5 5 5 5 4 2 2 4 7 8 9 7 8 10
9 9 10 10 10 10 11 10 9 9 9 8 8 8 8 8 8 8 8 8 8 8 7 8 9 8 7 5 5 4 4 4 4 5 3 3 4 7 9 8 9 8 9
10 10 11 12 12 12 11 11 11 10 10 10 9 9 9 8 8 8 7 7 8 7 7 8 9 9 8 6 5 5 4 4 4 5 5 6 6 7 8 9 8 6 7
10 10 12 12 11 11 11 11 11 11 11 10 9 9 8 7 8 7 6 7 8 7 7 8 8 9 10 7 5 4 4 4 5 5 6 7 7 9 8 7 10 9 7
10 11 11 10 10 11 11 11 11 10 10 9 9 9 8 8 10 11 8 7 8 8 7 7 8 8 9 9 8 6 7 7 7 6 6 9 9 9 9 10 11 9 5
10 11 10 10 10 10 11 10 10 10 9 9 9 9 9 10 13 13 12 7 8 8 8 8 8 8 8 6 6 5 4 5 7 7 9 10 11 12 12 10 9 6 7
10 10 9 9 9 9 8 9 9 8 8 8 9 9 9 10 13 13 12 7 7 8 8 9 9 9 9 8 7 5 4 4 5 6 8 9 11 11 10 10 11 10 8
9 9 9 9 9 8 8 9 8 7 8 8 7 9 9 10 12 13 11 5 6 7 8 9 10 11 13 13 10 8 6 5 7 11 12 13 14 14 12 11 11 12 9
11 10 9 9 9 10 10 9 8 7 8 9 9 9 10 10 12 13 11 5 6 5 5 7 11 12 15 15 11 10 10 7 9 12 12 13 12 12 13 11 12 12 10
12 12 11 11 11 10 10 9 9 8 8 8 9 8 9 10 11 13 12 6 6 5 4 4 6 13 16 16 12 10 12 11 10 10 10 9 8 8 7 7 8 11 9
13 13 13 12 12 12 9 8 8 8 8 8 8 7 6 7 9 10 12 11 8 5 5 4 5 13 15 16 11 13 16 13 9 9 9 8 7 7 6 7 8 6 5
14 14 13 13 11 10 10 9 8 7 7 7 6 6 6 5 6 9 10 10 11 6 3 5 7 12 13 12 14 17 13 9 9 10 9 6 5 7 8 8 8 8 7
15 14 12 11 11 10 8 8 8 7 7 7 7 6 6 5 5 4 4 5 6 5 4 5 8 11 9 11 13 11 8 8 10 9 8 6 5 6 8 8 8 8 7
13 13 11 10 9 8 8 8 8 7 8 8 7 6 6 6 7 9 7 5 5 5 6 4 4 6 7 7 8 8 8 8 8 7 8 8 7 7 6 5 5 6 6
12 10 8 7 7 6 6 7 9 10 11 13 11 8 6 7 10 11 10 9 10 12 8 6 6 7 8 9 9 8 7 8 8 9 9 8 8 7 6 4 5 7 8
11 10 7 6 6 5 5 5 4 2 2 5 8 10 8 10 11 11 11 10 11 11 7 7 7 8 7 8 8 7 6 7 8 9 9 8 8 7 6 6 6 6 6
10 10 7 5 4 4 4 3 3 3 3 2 3 6 9 11 11 11 11 9 6 5 5 7 7 7 8 8 8 7 7 8 8 8 8 8 7 7 6 7 6 6 5
9 7 5 4 3 3 2 2 2 3 4 4 4 4 7 8 8 8 8 5 6 6 6 6 6 6 7 8 8 8 9 8 8 7 7 8 7 7 7 7 7 9 6
8 11 8 3 3 2 0 1 2 4 5 5 6 6 6 5 4 5 4 4 5 5 5 5 5 6 7 7 8 8 8 8 8 7 7 7 7 7 8 8 8 8 6
7 7 9 5 3 2 1 2 3 4 5 5 5 6 9 6 6 5 4 4 5 4 4 4 4 6 6 7 8 9 10 8 8 7 7 7 7 7 7 8 8 8 7
6 5 3 3 2 2 2 2 3 4 5 6 5 6 8 5 5 4 4 4 3 3 3 4 5 6 7 8 9 9 9 8 8 8 7 7 7 7 7 7 7 7 7
6 5 3 2 2 3 3 3 3 5 5 6 6 6 5 4 4 4 4 3 3 3 4 5 5 6 7 7 9 10 10 9 9 9 9 8 7 7 7 7 8 8 7
6 4 3 2 2 2 2 3 4 5 5 6 6 6 5 4 5 5 4 3 3 2 4 5 7 10 11 9 7 7 7 8 8 9 11 9 8 7 6 7 7 8 8
5 4 3 2 2 2 3 4 4 5 5 5 5 5 5 4 4 4 3 2 2 2 3 4 6 10 12 13 11 8 12 15 13 11 7 8 9 8 8 7 7 6 6
5 4 3 3 3 3 3 4 4 4 5 5 5 5 5 4 4 3 2 2 1 2 3 4 8 10 11 11 12 14 15 15 14 14 9 8 8 7 7 6 8 7 7
Wind_Direction
228 231 236 244 249 254 260 266 271 277 286 291 294 300 302 300 294 286 273 263 251 248 241 232 235 234 234 237 237 237 233 227 246 244 213 164 137 126 110 96 90 86 89
232 232 237 241 242 245 250 255 256 262 267 270 276 282 286 291 292 287 283 273 255 250 245 237 237 235 233 235 236 239 235 221 223 227 205 163 139 135 121 108 96 93 91
239 236 241 244 243 244 247 250 250 251 257 261 263 266 270 273 277 276 275 272 257 246 241 237 234 226 230 231 232 235 232 227 210 194 188 159 135 134 122 108 102 96 92
242 237 240 242 241 242 246 248 249 247 249 253 253 252 256 262 267 270 273 275 263 250 244 238 226 218 220 223 228 226 218 210 194 181 170 153 138 131 127 125 113 98 95
246 241 240 241 240 240 242 244 245 244 246 244 245 249 250 255 259 260 264 274 266 254 249 236 222 215 211 211 211 208 202 201 185 175 163 148 143 144 137 130 122 111 89
248 246 244 240 237 236 238 239 239 240 243 241 238 239 243 253 262 267 266 269 266 250 245 234 221 211 206 204 202 198 197 192 182 174 163 155 149 143 135 137 134 131 115
254 251 248 244 241 240 241 238 234 234 235 237 238 236 237 244 253 262 267 263 261 248 240 226 215 205 190 183 178 175 182 177 173 169 161 154 151 150 144 142 141 127 123
264 258 253 248 245 243 241 239 237 232 230 231 234 235 235 244 248 255 262 258 258 252 240 225 210 193 187 174 162 150 138 136 146 147 147 144 143 145 144 141 132 114 103
285 276 269 260 251 243 238 238 236 231 233 231 230 230 231 241 245 251 255 248 252 261 251 229 207 193 185 169 157 148 133 117 107 117 121 125 130 135 137 132 132 133 130
285 280 275 268 261 253 243 236 233 229 235 237 237 231 227 232 238 242 241 227 243 259 256 228 208 193 175 166 161 154 146 138 127 117 112 113 121 131 138 142 145 143 139
289 284 280 271 265 262 253 243 237 233 232 234 237 236 229 229 235 238 230 211 222 240 246 224 206 185 172 168 162 158 151 140 130 124 120 117 114 119 126 132 140 146 145
291 289 284 276 272 274 260 250 239 230 232 234 235 240 235 231 231 234 224 215 211 217 226 203 187 173 172 166 158 146 140 132 127 125 124 124 123 123 125 129 131 128 137
289 286 282 279 271 264 257 253 247 234 229 229 224 230 236 232 229 225 214 210 207 203 202 179 169 169 166 162 149 143 138 130 130 128 128 125 119 120 115 109 102 100 86
290 287 281 276 271 262 254 247 244 234 224 221 217 220 223 218 209 199 190 187 187 183 166 146 153 161 159 147 144 140 134 134 134 133 129 118 107 107 116 121 122 115 96
292 287 282 273 266 262 253 244 237 231 219 210 210 203 199 208 210 188 176 181 177 162 146 137 148 154 149 142 136 130 128 128 126 127 128 124 119 116 112 102 109 106 109
299 294 287 277 267 258 255 261 244 237 234 224 214 197 199 193 174 170 168 163 159 153 146 148 156 158 155 151 147 137 132 138 141 140 139 137 136 132 120 105 109 117 121
302 299 293 284 271 260 249 242 251 262 223 213 202 190 175 158 159 160 156 153 152 148 147 153 158 161 153 149 146 141 141 146 144 145 146 145 140 134 129 127 124 123 126
310 308 305 289 276 262 246 226 205 180 142 94 100 146 152 153 155 156 152 142 142 152 153 157 160 157 151 149 148 144 140 142 143 145 147 146 144 141 141 144 145 143 139
317 313 304 300 294 271 234 203 183 167 144 130 112 99 120 132 138 153 158 153 152 156 154 153 159 155 152 150 148 145 146 149 151 148 150 151 151 147 150 155 155 156 144
322 331 338 320 321 329 252 155 142 138 135 136 139 140 142 136 144 155 166 156 150 150 150 155 154 155 154 150 147 146 147 149 151 149 152 154 153 152 154 154 155 157 159
322 331 344 345 346 359 47 108 126 131 135 141 148 157 159 152 153 158 161 152 146 151 157 158 160 161 156 149 148 150 151 154 155 152 151 152 150 149 152 153 157 158 155
321 325 339 346 3 30 52 89 113 120 127 128 127 136 152 144 152 157 154 152 163 177 176 169 173 169 164 159 154 152 153 154 155 151 149 150 150 149 147 146 149 153 156
322 330 347 357 24 50 57 72 96 111 119 126 133 140 153 153 155 157 163 169 184 195 185 177 171 161 158 159 158 159 161 164 163 156 150 149 150 151 149 151 156 155 165
323 328 343 2 31 53 74 88 99 110 121 128 134 143 150 151 157 169 173 177 187 187 167 161 160 158 154 153 153 152 154 155 153 155 152 153 154 154 153 156 162 170 175
330 342 356 14 40 63 83 98 104 110 117 125 131 135 142 148 155 167 173 180 175 149 143 140 146 152 152 153 154 151 154 154 155 154 146 150 156 159 160 162 164 165 172
350 4 20 36 54 75 90 99 105 109 114 122 125 130 137 143 152 161 160 143 112 116 132 133 142 148 151 154 154 152 156 161 161 158 151 150 155 162 163 167 173 176 179
Height
1480 1478 1476 1474 1472 1470 1468 1465 1463 1460 1459 1457 1456 1454 1453 1452 1452 1451 1451 1451 1452 1452 1452 1452 1451 1451 1449 1447 1446 1445 1444 1445 1444 1444 1445 1446 1447 1448 1449 1451 1452 1454 1456
1473 1471 1469 1467 1465 1463 1461 1459 1457 1455 1454 1452 1450 1448 1447 1446 1445 1444 1444 1444 1445 1445 1445 1445 1445 1444 1443 1442 1440 1439 1439 1439 1439 1439 1441 1442 1444 1446 1448 1450 1451 1453 1454
1466 1463 1461 1459 1458 1456 1454 1453 1451 1449 1448 1446 1445 1443 1441 1440 1439 1438 1438 1437 1437 1438 1438 1438 1438 1438 1437 1436 1435 1434 1433 1433 1434 1435 1436 1439 1441 1444 1446 1449 1451 1453 1454
1458 1455 1453 1451 1450 1448 1447 1445 1444 1442 1441 1439 1438 1437 1435 1434 1433 1432 1431 1431 1430 1430 1430 1431 1431 1431 1431 1430 1429 1429 1428 1428 1429 1430 1433 1435 1438 1441 1444 1447 1450 1453 1455
1449 1446 1444 1443 1441 1440 1439 1437 1436 1435 1433 1432 1431 1430 1429 1428 1427 1426 1425 1424 1423 1423 1423 1424 1424 1425 1425 1425 1424 1424 1424 1424 1424 1426 1429 1432 1435 1438 1442 1446 1449 1452 1455
1440 1437 1435 1434 1432 1431 1430 1429 1428 1427 1426 1425 1424 1423 1422 1421 1421 1420 1419 1418 1417 1416 1416 1417 1418 1419 1419 1420 1420 1419 1420 1420 1420 1422 1425 1428 1432 1436 1440 1444 1448 1451 1455
1430 1428 1426 1424 1423 1421 1421 1420 1419 1418 1417 1417 1416 1415 1414 1414 1414 1413 1412 1411 1410 1409 1409 1410 1411 1412 1414 1415 1415 1415 1416 1416 1418 1420 1422 1426 1430 1433 1438 1443 1448 1451 1454
1421 1418 1416 1414 1412 1411 1411 1410 1410 1409 1409 1408 1408 1407 1407 1406 1406 1406 1405 1404 1403 1402 1403 1403 1405 1406 1408 1410 1411 1412 1413 1414 1415 1418 1421 1425 1429 1434 1438 1443 1447 1452 1457
1411 1408 1406 1404 1402 1401 1400 1400 1400 1400 1399 1399 1399 1399 1399 1399 1399 1399 1398 1397 1397 1396 1396 1397 1398 1400 1403 1406 1408 1410 1411 1413 1415 1418 1421 1425 1430 1434 1439 1443 1448 1452 1457
1400 1397 1394 1392 1391 1389 1389 1389 1389 1389 1389 1390 1390 1390 1391 1391 1391 1392 1392 1391 1390 1390 1390 1390 1392 1395 1398 1402 1405 1407 1409 1412 1415 1418 1422 1426 1431 1436 1440 1444 1447 1452 1456
1389 1385 1382 1380 1379 1377 1377 1377 1377 1378 1379 1380 1380 1381 1382 1383 1384 1384 1385 1385 1385 1384 1384 1385 1386 1391 1395 1399 1403 1406 1409 1412 1415 1419 1423 1427 1432 1437 1441 1446 1450 1454 1457
1378 1374 1371 1369 1367 1366 1366 1366 1367 1368 1369 1370 1372 1373 1374 1376 1377 1377 1378 1379 1379 1379 1379 1380 1382 1387 1392 1397 1401 1405 1409 1413 1416 1420 1424 1428 1433 1438 1443 1447 1452 1457 1460
1369 1365 1361 1359 1357 1356 1356 1356 1357 1358 1359 1361 1363 1365 1367 1369 1370 1371 1372 1373 1374 1375 1375 1376 1379 1384 1390 1395 1400 1405 1409 1413 1416 1421 1425 1430 1435 1440 1444 1449 1453 1458 1462
1361 1356 1353 1350 1348 1347 1347 1347 1348 1349 1351 1353 1356 1358 1360 1362 1364 1366 1367 1368 1370 1371 1372 1374 1377 1382 1388 1394 1399 1405 1409 1414 1418 1422 1427 1432 1436 1441 1445 1449 1454 1458 1462
1354 1349 1346 1343 1341 1340 1339 1340 1341 1342 1345 1347 1350 1353 1355 1357 1360 1362 1363 1365 1366 1367 1370 1372 1375 1380 1387 1393 1399 1405 1410 1415 1420 1425 1429 1433 1438 1442 1447 1451 1455 1458 1462
1349 1344 1340 1337 1335 1334 1334 1334 1335 1337 1340 1343 1346 1349 1351 1354 1357 1359 1360 1362 1363 1365 1368 1370 1374 1380 1386 1393 1399 1405 1411 1417 1422 1426 1430 1434 1439 1443 1447 1452 1456 1459 1462
1346 1341 1337 1334 1332 1331 1331 1331 1332 1334 1337 1340 1343 1346 1349 1352 1355 1357 1358 1360 1362 1363 1366 1370 1375 1381 1388 1395 1401 1407 1412 1418 1423 1427 1431 1436 1440 1444 1448 1452 1456 1460 1463
1344 1340 1336 1333 1330 1329 1329 1330 1331 1332 1335 1338 1341 1344 1348 1351 1353 1355 1357 1359 1360 1363 1366 1371 1377 1383 1390 1397 1403 1409 1414 1419 1424 1428 1433 1437 1441 1445 1449 1453 1457 1460 1464
1344 1340 1336 1333 1331 1329 1329 1329 1331 1332 1335 1338 1341 1344 1347 1350 1352 1354 1356 1358 1360 1364 1368 1373 1380 1387 1393 1400 1406 1411 1416 1420 1425 1430 1434 1438 1442 1446 1450 1454 1457 1461 1464
1345 1341 1337 1335 1332 1331 1330 1331 1332 1333 1336 1338 1341 1344 1347 1350 1352 1354 1356 1359 1362 1365 1370 1377 1383 1390 1396 1402 1407 1412 1417 1422 1426 1431 1435 1439 1443 1447 1451 1454 1458 1461 1464
1345 1342 1339 1337 1335 1333 1333 1333 1334 1335 1337 1340 1343 1346 1348 1351 1353 1355 1358 1361 1364 1369 1375 1381 1387 1393 1398 1404 1409 1414 1418 1423 1427 1431 1436 1440 1444 1447 1451 1455 1458 1461 1464
1346 1343 1341 1339 1337 1336 1336 1336 1337 1338 1340 1342 1345 1347 1350 1353 1355 1358 1361 1364 1369 1374 1379 1384 1390 1395 1400 1405 1410 1414 1419 1423 1427 1432 1436 1440 1444 1448 1451 1454 1458 1461 1463
1346 1344 1342 1341 1340 1339 1339 1339 1339 1341 1343 1345 1347 1350 1352 1355 1358 1361 1364 1369 1373 1378 1383 1387 1392 1397 1401 1406 1411 1415 1419 1423 1428 1432 1436 1440 1444 1448 1451 1454 1457 1460 1463
1347 1345 1344 1342 1341 1341 1341 1341 1342 1344 1345 1348 1350 1353 1356 1359 1362 1365 1369 1373 1377 1381 1385 1390 1394 1399 1403 1408 1412 1417 1421 1425 1429 1433 1437 1441 1444 1447 1451 1454 1456 1459 1462
1349 1347 1345 1344 1343 1343 1344 1345 1346 1347 1349 1351 1354 1357 1360 1363 1367 1370 1374 1378 1382 1385 1389 1393 1397 1401 1406 1410 1414 1418 1422 1426 1429 1433 1437 1441 1444 1447 1450 1453 1456 1458 1460
1351 1350 1348 1347 1347 1347 1347 1348 1349 1351 1353 1355 1358 1361 1364 1368 1371 1375 1379 1382 1386 1389 1393 1397 1401 1404 1408 1412 1416 1420 1423 1427 1430 1434 1437 1441 1444 1447 1450 1452 1454 1457 1458